Flag for India Weather for the Past 2 Weeks in Thiruvananthapuram, Kerala, India

Now
90 °F

Scattered clouds.


Feels Like: 98 °F
Forecast: 77 / 90 °F
Wind: 9 mph from Southwest

Location: Thiruvananthapuram

Current Time: Feb 14, 2016 at 2:16:20 PM

Latest Report: Feb 14, 2016 at 1:30 PM


Visibility: 3 mi

Pressure: 29.80 "Hg

Humidity: 59%

Dew point: 73 °F

Location of ThiruvananthapuramLocation

Historic Weather in Thiruvananthapuram — Graph

°F

Thiruvananthapuram Temperature Yesterday

Maximum temperature yesterday: 93 °F (at 1:30 PM)
Minimum temperature yesterday: 77 °F (at 6:30 AM)
Average temperature yesterday: 85 °F

High & Low Weather Summary for the Past Weeks

 TemperatureHumidityPressure
High93 °F (Feb 13, 1:30 PM)94% (Feb 2, 3:00 AM)29.95 "Hg (Feb 2, 3:00 AM)
Low72 °F (Feb 2, 5:30 AM)41% (Feb 13, 1:30 PM)29.65 "Hg (Feb 3, 5:30 PM)
Average84 °F71%29.85 "Hg
* Reported Jan 30 12:30 PM — Feb 14 1:00 PM, Thiruvananthapuram, Weather by CustomWeather, © 2016

Note: Actual official high and low records may vary slightly from our data, if they occured in-between our weather recording intervals... More about our weather records

Advertising

Thiruvananthapuram Weather History for the Previous 24 Hours

 ConditionsComfort  
Time TempWeatherWind HumidityBarometerVisibility
1:00 PM
Sun, Feb 14
90 °FScattered clouds.9 mph63%29.83 "Hg3 mi
12:30 PM90 °FScattered clouds.8 mph63%29.83 "Hg3 mi
12:00 PM90 °FScattered clouds.8 mph63%29.86 "Hg3 mi
11:30 AM90 °FScattered clouds.10 mph63%29.86 "Hg3 mi
11:00 AM88 °FScattered clouds.9 mph66%29.86 "Hg3 mi
10:30 AM88 °FScattered clouds.8 mph66%29.89 "Hg2 mi
9:30 AM86 °FScattered clouds.6 mph75%29.89 "Hg2 mi
9:00 AM86 °FScattered clouds.No wind70%29.89 "Hg2 mi
8:30 AM84 °FScattered clouds.No wind79%29.89 "Hg2 mi
7:30 AM81 °FScattered clouds.No wind84%29.86 "Hg1 mi
7:00 AM81 °FPassing clouds.No wind84%29.83 "Hg1 mi
6:30 AM81 °FPassing clouds.No wind84%29.83 "Hg2 mi
6:00 AM79 °FPassing clouds.No wind89%29.80 "Hg2 mi
5:30 AM79 °FPassing clouds.No wind89%29.80 "Hg2 mi
5:00 AM79 °FPassing clouds.No wind84%29.80 "Hg2 mi
4:30 AM79 °FPassing clouds.No wind84%29.80 "Hg2 mi
3:30 AM79 °FPassing clouds.No wind84%29.77 "Hg2 mi
3:00 AM79 °FPassing clouds.No wind89%29.80 "Hg2 mi
2:30 AM79 °FPassing clouds.No wind89%29.80 "Hg2 mi
2:00 AM79 °FPassing clouds.3 mph89%29.80 "Hg2 mi
1:30 AM79 °FPassing clouds.No wind89%29.83 "Hg2 mi
12:00 AM81 °FPassing clouds.3 mph84%29.86 "Hg2 mi
11:30 PM
Sat, Feb 13
81 °FPassing clouds.3 mph84%29.86 "Hg2 mi
11:00 PM82 °FPassing clouds.5 mph79%29.86 "Hg2 mi
10:30 PM82 °FPassing clouds.3 mph79%29.86 "Hg2 mi
9:30 PM82 °FPassing clouds.6 mph79%29.86 "Hg2 mi
9:00 PM82 °FHaze.3 mph79%29.86 "Hg2 mi
8:30 PM82 °FHaze.5 mph79%29.86 "Hg2 mi
8:00 PM82 °FHaze.3 mph74%29.83 "Hg2 mi
7:30 PM86 °FHaze.5 mph66%29.83 "Hg2 mi
7:00 PM86 °FHaze.5 mph66%29.83 "Hg2 mi
6:30 PM86 °FHaze.3 mph66%29.80 "Hg2 mi
6:00 PM86 °FHaze.5 mph66%29.80 "Hg3 mi
5:30 PM88 °FHaze.6 mph62%29.80 "Hg3 mi
5:00 PM88 °FPassing clouds.7 mph59%29.80 "Hg4 mi
4:30 PM90 °FPassing clouds.6 mph55%29.77 "Hg4 mi
4:00 PM90 °FPassing clouds.6 mph55%29.77 "Hg4 mi
3:30 PM91 °FPassing clouds.8 mph49%29.77 "Hg4 mi
3:00 PM91 °FHot.8 mph49%29.77 "Hg4 mi
2:30 PM91 °FPassing clouds.7 mph49%29.77 "Hg4 mi
2:00 PM93 °FPassing clouds.12 mph47%29.80 "Hg4 mi
Weather by CustomWeather, © 2016

See weather overviewHow to use our weather pages